,,Stat6,,Stat2,,Stat8,,Stat9,,Stat10,,Wind1,,Wind1,
time,status,PA1M_AVG,status,PR1M_SUM,status,RH1M_AVG,status,SR1M_AVG,status,TA1M_AVG,status,W1dAve1m,status,W1sAve1m,
2008-11-10, 00:00:00,VALID,917.737,VALID,0,VALID,100,VALID,-0.0169808,VALID,20.2704,VALID,43,VALID,0,
2008-11-10, 00:01:00,VALID,917.71,VALID,0,VALID,100,VALID,0.0169808,VALID,20.2442,VALID,135,VALID,0,
2008-11-10, 00:02:00,VALID,917.699,VALID,0,VALID,100,VALID,0,VALID,20.2539,VALID,37,VALID,0,
2008-11-10, 00:03:00,VALID,917.699,VALID,0,VALID,100,VALID,0.0339617,VALID,20.2315,VALID,36,VALID,0,
2008-11-10, 00:04:00,VALID,917.7,VALID,0,VALID,100,VALID,-0.0169808,VALID,20.199,VALID,48,VALID,0,
2008-11-10, 00:05:00,VALID,917.706,VALID,0,VALID,100,VALID,0,VALID,20.2025,VALID,39,VALID,0,
2008-11-10, 00:06:00,VALID,917.705,VALID,0,VALID,100,VALID,-0.0169808,VALID,20.2255,VALID,39,VALID,0,
2008-11-10, 00:07:00,VALID,917.701,VALID,0,VALID,100,VALID,0,VALID,20.235,VALID,36,VALID,0,
2008-11-10, 00:08:00,VALID,917.688,VALID,0,VALID,100,VALID,-0.0169808,VALID,20.2734,VALID,32,VALID,0,
2008-11-10, 00:09:00,VALID,917.683,VALID,0,VALID,100,VALID,0,VALID,20.2771,VALID,23,VALID,0,
2008-11-10, 00:10:00,VALID,917.695,VALID,0,VALID,100,VALID,0,VALID,20.2836,VALID,24,VALID,0,
2008-11-10, 00:11:00,VALID,917.67,VALID,0,VALID,100,VALID,-0.0169808,VALID,20.2352,VALID,37,VALID,0,
2008-11-10, 00:12:00,VALID,917.668,VALID,0,VALID,100,VALID,0,VALID,20.2449,VALID,24,VALID,0.0628811,
2008-11-10, 00:13:00,VALID,917.659,VALID,0,VALID,100,VALID,0.0169808,VALID,20.2379,VALID,19,VALID,0,
2008-11-10, 00:14:00,VALID,917.627,VALID,0,VALID,100,VALID,-0.0169808,VALID,20.212,VALID,17,VALID,1.02813,
2008-11-10, 00:15:00,VALID,917.642,VALID,0,VALID,100,VALID,0.0339617,VALID,20.1925,VALID,14,VALID,0.602515,
2008-11-10, 00:16:00,VALID,917.637,VALID,0,VALID,100,VALID,-0.0169808,VALID,20.1536,VALID,15,VALID,0.0572311,
2008-11-10, 00:17:00,VALID,917.637,VALID,0,VALID,100,VALID,0,VALID,20.1346,VALID,358,VALID,0,
2008-11-10, 00:18:00,VALID,917.621,VALID,0,VALID,100,VALID,0,VALID,20.1176,VALID,10,VALID,0.000363372,
2008-11-10, 00:19:00,VALID,917.623,VALID,0,VALID,100,VALID,-0.0169808,VALID,20.1276,VALID,23,VALID,0.00090843,
2008-11-10, 00:20:00,VALID,917.612,VALID,0,VALID,100,VALID,0,VALID,20.1376,VALID,27,VALID,0,
2008-11-10, 00:21:00,VALID,917.611,VALID,0,VALID,100,VALID,0.0169808,VALID,20.1244,VALID,15,VALID,0,
2008-11-10, 00:22:00,VALID,917.604,VALID,0,VALID,100,VALID,0,VALID,20.1081,VALID,17,VALID,0,
2008-11-10, 00:23:00,VALID,917.578,VALID,0,VALID,100,VALID,-0.0339617,VALID,20.1052,VALID,22,VALID,0,
2008-11-10, 00:24:00,VALID,917.581,VALID,0,VALID,100,VALID,0,VALID,20.1017,VALID,13,VALID,0,
2008-11-10, 00:25:00,VALID,917.564,VALID,0,VALID,100,VALID,0,VALID,20.0952,VALID,13,VALID,0,
2008-11-10, 00:26:00,VALID,917.543,VALID,0,VALID,100,VALID,0,VALID,20.0827,VALID,12,VALID,0,
2008-11-10, 00:27:00,VALID,917.54,VALID,0,VALID,100,VALID,0,VALID,20.0792,VALID,359,VALID,0,
2008-11-10, 00:28:00,VALID,917.541,VALID,0,VALID,100,VALID,0,VALID,20.0792,VALID,2,VALID,0,
2008-11-10, 00:29:00,VALID,917.521,VALID,0,VALID,100,VALID,0,VALID,20.0924,VALID,360,VALID,0,
2008-11-10, 00:30:00,VALID,917.514,VALID,0,VALID,100,VALID,0,VALID,20.0854,VALID,360,VALID,0,
2008-11-10, 00:31:00,VALID,917.492,VALID,0,VALID,100,VALID,0,VALID,20.0887,VALID,360,VALID,0,
2008-11-10, 00:32:00,VALID,917.47,VALID,0,VALID,100,VALID,0.0169808,VALID,20.0984,VALID,360,VALID,0,
2008-11-10, 00:33:00,VALID,917.458,VALID,0,VALID,100,VALID,0,VALID,20.0919,VALID,360,VALID,0,
2008-11-10, 00:34:00,VALID,917.444,VALID,0,VALID,100,VALID,-0.0339617,VALID,20.0887,VALID,8,VALID,0.0178329,
2008-11-10, 00:35:00,VALID,917.424,VALID,0,VALID,100,VALID,-0.101885,VALID,20.0902,VALID,355,VALID,0.452524,
2008-11-10, 00:36:00,VALID,917.391,VALID,0,VALID,100,VALID,-0.101885,VALID,20.0672,VALID,22,VALID,1.54279,
2008-11-10, 00:37:00,VALID,917.407,VALID,0,VALID,100,VALID,-0.101885,VALID,20.0677,VALID,22,VALID,0.664418,
2008-11-10, 00:38:00,VALID,917.419,VALID,0,VALID,100,VALID,-0.101885,VALID,20.0837,VALID,15,VALID,0.0492369,
2008-11-10, 00:39:00,VALID,917.402,VALID,0,VALID,100,VALID,-0.0679233,VALID,20.0902,VALID,15,VALID,0,
2008-11-10, 00:40:00,VALID,917.401,VALID,0,VALID,100,VALID,-0.0849042,VALID,20.0902,VALID,96,VALID,0.162729,
2008-11-10, 00:41:00,VALID,917.396,VALID,0,VALID,100,VALID,-0.0849042,VALID,20.1099,VALID,199,VALID,0.386719,
2008-11-10, 00:42:00,VALID,917.383,VALID,0,VALID,100,VALID,-0.118866,VALID,20.0937,VALID,199,VALID,0,
2008-11-10, 00:43:00,VALID,917.389,VALID,0.2,VALID,100,VALID,-0.101885,VALID,20.1064,VALID,199,VALID,0,
2008-11-10, 00:44:00,VALID,917.395,VALID,0,VALID,100,VALID,-0.101885,VALID,20.1324,VALID,199,VALID,0,
2008-11-10, 00:45:00,VALID,917.384,VALID,0,VALID,100,VALID,-0.118866,VALID,20.1651,VALID,200,VALID,0,
2008-11-10, 00:46:00,VALID,917.369,VALID,0,VALID,100,VALID,-0.135847,VALID,20.1983,VALID,139,VALID,0,
2008-11-10, 00:47:00,VALID,917.364,VALID,0,VALID,100,VALID,-0.101885,VALID,20.1781,VALID,93,VALID,0,
2008-11-10, 00:48:00,VALID,917.369,VALID,0,VALID,100,VALID,-0.101885,VALID,20.1713,VALID,64,VALID,0.0560764,
2008-11-10, 00:49:00,VALID,917.366,VALID,0,VALID,100,VALID,-0.118866,VALID,20.1778,VALID,88,VALID,0.0541295,
2008-11-10, 00:50:00,VALID,917.352,VALID,0,VALID,100,VALID,-0.0169808,VALID,20.1441,VALID,312,VALID,0.415923,
2008-11-10, 00:51:00,VALID,917.375,VALID,0,VALID,100,VALID,-0.0169808,VALID,20.1311,VALID,267,VALID,0.00236192,
2008-11-10, 00:52:00,VALID,917.372,VALID,0.2,VALID,100,VALID,-0.0339617,VALID,20.1276,VALID,267,VALID,0,
2008-11-10, 00:53:00,VALID,917.378,VALID,0,VALID,100,VALID,0,VALID,20.1406,VALID,360,VALID,0,
2008-11-10, 00:54:00,VALID,917.369,VALID,0,VALID,100,VALID,0.0339617,VALID,20.1568,VALID,20,VALID,0,
2008-11-10, 00:55:00,VALID,917.336,VALID,0,VALID,100,VALID,0,VALID,20.1344,VALID,55,VALID,0.203683,
2008-11-10, 00:56:00,VALID,917.34,VALID,0,VALID,100,VALID,0.0169808,VALID,20.0952,VALID,75,VALID,0.438772,
2008-11-10, 00:57:00,VALID,917.3,VALID,0,VALID,100,VALID,0.0169808,VALID,20.0725,VALID,137,VALID,0.50651,
2008-11-10, 00:58:00,VALID,917.301,VALID,0,VALID,100,VALID,-0.0339617,VALID,20.0695,VALID,12,VALID,0.093564,
2008-11-10, 00:59:00,VALID,917.289,VALID,0,VALID,100,VALID,-0.0169808,VALID,20.0692,VALID,35,VALID,0.00372024,
2008-11-10, 01:00:00,VALID,917.264,VALID,0,VALID,100,VALID,-0.0339617,VALID,20.0562,VALID,11,VALID,0.543786,
2008-11-10, 01:01:00,VALID,917.268,VALID,0,VALID,100,VALID,0.0339617,VALID,20.0173,VALID,69,VALID,0.275618,
2008-11-10, 01:02:00,VALID,917.214,VALID,0,VALID,100,VALID,0.0169808,VALID,20.0175,VALID,35,VALID,0.530869,
2008-11-10, 01:03:00,VALID,917.226,VALID,0,VALID,100,VALID,0,VALID,20.0173,VALID,189,VALID,0.0695503,
2008-11-10, 01:04:00,VALID,917.191,VALID,0,VALID,100,VALID,0,VALID,20.0108,VALID,185,VALID,0.137005,
2008-11-10, 01:05:00,VALID,917.192,VALID,0,VALID,100,VALID,-0.101885,VALID,20.0026,VALID,127,VALID,0.285239,
2008-11-10, 01:06:00,VALID,917.176,VALID,0,VALID,100,VALID,-0.101885,VALID,19.9731,VALID,86,VALID,0,
2008-11-10, 01:07:00,VALID,917.146,VALID,0,VALID,100,VALID,-0.135847,VALID,19.9379,VALID,187,VALID,0.168255,
2008-11-10, 01:08:00,VALID,917.093,VALID,0.2,VALID,100,VALID,-0.118866,VALID,19.9344,VALID,31,VALID,1.40644,
2008-11-10, 01:09:00,VALID,917.157,VALID,0,VALID,100,VALID,-0.101885,VALID,19.9244,VALID,18,VALID,0.903773,
2008-11-10, 01:10:00,VALID,917.13,VALID,0,VALID,100,VALID,-0.101885,VALID,19.9052,VALID,336,VALID,0.885671,
2008-11-10, 01:11:00,VALID,917.168,VALID,0,VALID,100,VALID,-0.118866,VALID,19.8823,VALID,34,VALID,0.414249,
2008-11-10, 01:12:00,VALID,917.174,VALID,0,VALID,100,VALID,-0.152827,VALID,19.8403,VALID,47,VALID,0.778232,
2008-11-10, 01:13:00,VALID,917.153,VALID,0,VALID,100,VALID,-0.101885,VALID,19.7687,VALID,6,VALID,2.50145,
2008-11-10, 01:14:00,VALID,917.167,VALID,0.2,VALID,100,VALID,-0.118866,VALID,19.7365,VALID,26,VALID,0.285156,
2008-11-10, 01:15:00,VALID,917.168,VALID,0,VALID,100,VALID,-0.101885,VALID,19.7492,VALID,5,VALID,0.0664063,
2008-11-10, 01:16:00,VALID,917.128,VALID,0,VALID,100,VALID,-0.101885,VALID,19.7495,VALID,355,VALID,0.280107,
2008-11-10, 01:17:00,VALID,917.112,VALID,0,VALID,100,VALID,-0.101885,VALID,19.6876,VALID,33,VALID,1.48892,
2008-11-10, 01:18:00,VALID,917.093,VALID,0,VALID,100,VALID,-0.135847,VALID,19.6616,VALID,356,VALID,0.812872,
2008-11-10, 01:19:00,VALID,917.085,VALID,0,VALID,100,VALID,-0.0849042,VALID,19.6649,VALID,14,VALID,1.76749,
2008-11-10, 01:20:00,VALID,917.055,VALID,0,VALID,100,VALID,0,VALID,19.6015,VALID,31,VALID,2.1994,
2008-11-10, 01:21:00,VALID,917.039,VALID,0,VALID,100,VALID,-0.0169808,VALID,19.5595,VALID,37,VALID,1.09738,
2008-11-10, 01:22:00,VALID,917.012,VALID,0,VALID,100,VALID,0,VALID,19.5371,VALID,30,VALID,1.27271,
2008-11-10, 01:23:00,VALID,917.024,VALID,0,VALID,100,VALID,0.0169808,VALID,19.4984,VALID,360,VALID,0.984375,
2008-11-10, 01:24:00,VALID,917.035,VALID,0.2,VALID,100,VALID,0,VALID,19.433,VALID,21,VALID,1.8679,
2008-11-10, 01:25:00,VALID,917.034,VALID,0,VALID,100,VALID,0,VALID,19.3878,VALID,26,VALID,2.41315,
2008-11-10, 01:26:00,VALID,917,VALID,0,VALID,100,VALID,0,VALID,19.3549,VALID,27,VALID,1.6248,
2008-11-10, 01:27:00,VALID,917.034,VALID,0,VALID,100,VALID,-0.0169808,VALID,19.3489,VALID,330,VALID,0.343572,
2008-11-10, 01:28:00,VALID,917.028,VALID,0,VALID,100,VALID,0.0169808,VALID,19.329,VALID,47,VALID,0.473028,
2008-11-10, 01:29:00,VALID,917.025,VALID,0,VALID,100,VALID,0,VALID,19.3324,VALID,121,VALID,0.15997,
2008-11-10, 01:30:00,VALID,917.034,VALID,0,VALID,100,VALID,0.0169808,VALID,19.3389,VALID,86,VALID,0.570858,
2008-11-10, 01:31:00,VALID,916.993,VALID,0.2,VALID,100,VALID,-0.0169808,VALID,19.3225,VALID,34,VALID,0.538175,
2008-11-10, 01:32:00,VALID,916.98,VALID,0.2,VALID,100,VALID,0,VALID,19.2865,VALID,322,VALID,0.47619,
2008-11-10, 01:33:00,VALID,916.953,VALID,0,VALID,100,VALID,0,VALID,19.2541,VALID,21,VALID,1.77985,
2008-11-10, 01:34:00,VALID,916.95,VALID,0.2,VALID,100,VALID,-0.0169808,VALID,19.2476,VALID,22,VALID,1.13565,
2008-11-10, 01:35:00,VALID,916.948,VALID,0,VALID,100,VALID,-0.118866,VALID,19.272,VALID,334,VALID,0.487645,
2008-11-10, 01:36:00,VALID,916.918,VALID,0,VALID,100,VALID,-0.101885,VALID,19.265,VALID,6,VALID,0.889898,
2008-11-10, 01:37:00,VALID,916.923,VALID,0,VALID,100,VALID,-0.0679233,VALID,19.2618,VALID,31,VALID,1.39008,
2008-11-10, 01:38:00,VALID,916.901,VALID,0.2,VALID,100,VALID,-0.0849042,VALID,19.2655,VALID,22,VALID,0.204241,
2008-11-10, 01:39:00,VALID,916.901,VALID,0,VALID,100,VALID,-0.0849042,VALID,19.2586,VALID,50,VALID,0.144804,
2008-11-10, 01:40:00,VALID,916.878,VALID,0.2,VALID,100,VALID,-0.0849042,VALID,19.2393,VALID,38,VALID,0.914426,
2008-11-10, 01:41:00,VALID,916.871,VALID,0.2,VALID,100,VALID,-0.101885,VALID,19.2036,VALID,50,VALID,0.689862,
2008-11-10, 01:42:00,VALID,916.863,VALID,0,VALID,100,VALID,-0.101885,VALID,19.2166,VALID,22,VALID,1.9819,
2008-11-10, 01:43:00,VALID,916.894,VALID,0,VALID,100,VALID,-0.0509425,VALID,19.2231,VALID,40,VALID,0.911086,
2008-11-10, 01:44:00,VALID,916.892,VALID,0,VALID,100,VALID,-0.0679233,VALID,19.2131,VALID,25,VALID,0.823847,
2008-11-10, 01:45:00,VALID,916.917,VALID,0,VALID,100,VALID,-0.101885,VALID,19.2004,VALID,22,VALID,0.388529,
2008-11-10, 01:46:00,VALID,916.94,VALID,0,VALID,100,VALID,-0.0679233,VALID,19.2069,VALID,25,VALID,0.295201,
2008-11-10, 01:47:00,VALID,916.944,VALID,0,VALID,100,VALID,-0.0679233,VALID,19.1904,VALID,46,VALID,0.195126,
2008-11-10, 01:48:00,VALID,916.935,VALID,0,VALID,100,VALID,-0.0679233,VALID,19.1909,VALID,10,VALID,0.827925,
2008-11-10, 01:49:00,VALID,916.934,VALID,0,VALID,100,VALID,-0.0679233,VALID,19.1874,VALID,336,VALID,0.0451766,
2008-11-10, 01:50:00,VALID,916.923,VALID,0,VALID,100,VALID,-0.101885,VALID,19.1842,VALID,2,VALID,0.275923,
2008-11-10, 01:51:00,VALID,916.912,VALID,0,VALID,100,VALID,-0.0849042,VALID,19.165,VALID,17,VALID,1.36615,
2008-11-10, 01:52:00,VALID,916.899,VALID,0,VALID,100,VALID,-0.0849042,VALID,19.1285,VALID,5,VALID,0.00236192,
2008-11-10, 01:53:00,VALID,916.909,VALID,0,VALID,100,VALID,-0.0849042,VALID,19.142,VALID,10,VALID,0,
2008-11-10, 01:54:00,VALID,916.903,VALID,0,VALID,100,VALID,-0.118866,VALID,19.1522,VALID,19,VALID,0,
2008-11-10, 01:55:00,VALID,916.906,VALID,0,VALID,100,VALID,-0.101885,VALID,19.1749,VALID,22,VALID,0,
2008-11-10, 01:56:00,VALID,916.883,VALID,0,VALID,100,VALID,-0.0849042,VALID,19.1682,VALID,76,VALID,0.303711,
2008-11-10, 01:57:00,VALID,916.877,VALID,0,VALID,100,VALID,-0.118866,VALID,19.1066,VALID,248,VALID,0.500545,
2008-11-10, 01:58:00,VALID,916.882,VALID,0,VALID,100,VALID,-0.0849042,VALID,19.0801,VALID,300,VALID,0.218217,
2008-11-10, 01:59:00,VALID,916.879,VALID,0,VALID,100,VALID,-0.101885,VALID,19.0672,VALID,243,VALID,0.00334821,
2008-11-10, 02:00:00,VALID,916.871,VALID,0.2,VALID,100,VALID,-0.118866,VALID,19.0609,VALID,250,VALID,0,
2008-11-10, 02:01:00,VALID,916.835,VALID,0,VALID,100,VALID,-0.0849042,VALID,19.0871,VALID,48,VALID,0.0609715,
2008-11-10, 02:02:00,VALID,916.811,VALID,0,VALID,100,VALID,-0.101885,VALID,19.0964,VALID,22,VALID,0.0462891,
2008-11-10, 02:03:00,VALID,916.795,VALID,0,VALID,100,VALID,-0.101885,VALID,19.1163,VALID,16,VALID,0.00520833,
2008-11-10, 02:04:00,VALID,916.777,VALID,0.2,VALID,100,VALID,-0.0849042,VALID,19.1156,VALID,21,VALID,0,
2008-11-10, 02:05:00,VALID,916.762,VALID,0,VALID,100,VALID,-0.118866,VALID,19.1392,VALID,21,VALID,0,
2008-11-10, 02:06:00,VALID,916.73,VALID,0.2,VALID,100,VALID,-0.118866,VALID,19.1427,VALID,41,VALID,0,
2008-11-10, 02:07:00,VALID,916.698,VALID,0.2,VALID,100,VALID,-0.101885,VALID,19.1263,VALID,30,VALID,0,
2008-11-10, 02:08:00,VALID,916.677,VALID,0,VALID,100,VALID,-0.101885,VALID,19.1298,VALID,28,VALID,0.0719105,
2008-11-10, 02:09:00,VALID,916.659,VALID,0.2,VALID,100,VALID,-0.118866,VALID,19.1457,VALID,23,VALID,0.529535,
2008-11-10, 02:10:00,VALID,916.641,VALID,0,VALID,100,VALID,-0.101885,VALID,19.12,VALID,16,VALID,0.318638,
2008-11-10, 02:11:00,VALID,916.616,VALID,0,VALID,100,VALID,-0.101885,VALID,19.1195,VALID,27,VALID,0.254464,
2008-11-10, 02:12:00,VALID,916.607,VALID,0,VALID,100,VALID,-0.101885,VALID,19.139,VALID,28,VALID,0.644531,
2008-11-10, 02:13:00,VALID,916.598,VALID,0,VALID,100,VALID,-0.101885,VALID,19.1131,VALID,38,VALID,0.125391,
2008-11-10, 02:14:00,VALID,916.589,VALID,0.2,VALID,100,VALID,-0.135847,VALID,19.1098,VALID,26,VALID,0.609738,
2008-11-10, 02:15:00,VALID,916.571,VALID,0,VALID,100,VALID,-0.101885,VALID,19.0869,VALID,28,VALID,0.326601,
2008-11-10, 02:16:00,VALID,916.556,VALID,0,VALID,100,VALID,-0.101885,VALID,19.0906,VALID,22,VALID,0.0939453,
2008-11-10, 02:17:00,VALID,916.516,VALID,0,VALID,100,VALID,-0.0849042,VALID,19.0609,VALID,23,VALID,0.307639,
2008-11-10, 02:18:00,VALID,916.504,VALID,0,VALID,100,VALID,-0.0849042,VALID,19.0646,VALID,29,VALID,0.27763,
2008-11-10, 02:19:00,VALID,916.496,VALID,0,VALID,100,VALID,-0.0849042,VALID,19.0609,VALID,17,VALID,0.0950218,
2008-11-10, 02:20:00,VALID,916.475,VALID,0,VALID,100,VALID,0,VALID,19.05,VALID,23,VALID,0.0195313,
2008-11-10, 02:21:00,VALID,916.457,VALID,0.2,VALID,100,VALID,0,VALID,19.0502,VALID,17,VALID,0.256747,
2008-11-10, 02:22:00,VALID,916.42,VALID,0,VALID,100,VALID,-0.0169808,VALID,19.0537,VALID,29,VALID,0.0796131,
2008-11-10, 02:23:00,VALID,916.403,VALID,0,VALID,100,VALID,0.0169808,VALID,19.0437,VALID,8,VALID,0,
2008-11-10, 02:24:00,VALID,916.381,VALID,0,VALID,100,VALID,0,VALID,19.05,VALID,7,VALID,0,
2008-11-10, 02:25:00,VALID,916.366,VALID,0,VALID,100,VALID,0,VALID,19.0565,VALID,17,VALID,0,
2008-11-10, 02:26:00,VALID,916.35,VALID,0,VALID,100,VALID,-0.0169808,VALID,19.0307,VALID,61,VALID,0.0577446,
2008-11-10, 02:27:00,VALID,916.345,VALID,0,VALID,100,VALID,0,VALID,19.021,VALID,48,VALID,0.122396,
2008-11-10, 02:28:00,VALID,916.321,VALID,0,VALID,100,VALID,0,VALID,19.0305,VALID,44,VALID,0,
2008-11-10, 02:29:00,VALID,916.323,VALID,0,VALID,100,VALID,-0.0679233,VALID,19.0697,VALID,31,VALID,0,
2008-11-10, 02:30:00,VALID,916.303,VALID,0,VALID,100,VALID,-0.0339617,VALID,19.0926,VALID,25,VALID,0,
2008-11-10, 02:31:00,VALID,916.299,VALID,0,VALID,100,VALID,0,VALID,19.1086,VALID,21,VALID,0,
2008-11-10, 02:32:00,VALID,916.286,VALID,0,VALID,100,VALID,-0.0339617,VALID,19.0921,VALID,15,VALID,0.00106534,
2008-11-10, 02:33:00,VALID,916.289,VALID,0,VALID,100,VALID,0,VALID,19.0662,VALID,345,VALID,0,
2008-11-10, 02:34:00,VALID,916.278,VALID,0.2,VALID,100,VALID,0,VALID,19.0562,VALID,13,VALID,0,
2008-11-10, 02:35:00,VALID,916.276,VALID,0,VALID,100,VALID,-0.101885,VALID,19.0257,VALID,19,VALID,0,
2008-11-10, 02:36:00,VALID,916.252,VALID,0,VALID,100,VALID,-0.0849042,VALID,19.0384,VALID,30,VALID,0.261364,
2008-11-10, 02:37:00,VALID,916.268,VALID,0,VALID,100,VALID,-0.101885,VALID,19.035,VALID,12,VALID,0.0812872,
2008-11-10, 02:38:00,VALID,916.247,VALID,0,VALID,100,VALID,-0.101885,VALID,19.0289,VALID,9,VALID,0,
2008-11-10, 02:39:00,VALID,916.242,VALID,0,VALID,100,VALID,-0.101885,VALID,19.0354,VALID,9,VALID,0,
2008-11-10, 02:40:00,VALID,916.229,VALID,0,VALID,100,VALID,-0.101885,VALID,19.0549,VALID,9,VALID,0,
2008-11-10, 02:41:00,VALID,916.22,VALID,0,VALID,100,VALID,-0.0849042,VALID,19.0382,VALID,9,VALID,0,
2008-11-10, 02:42:00,VALID,916.195,VALID,0,VALID,100,VALID,-0.101885,VALID,19.016,VALID,9,VALID,0,
2008-11-10, 02:43:00,VALID,916.176,VALID,0,VALID,100,VALID,-0.101885,VALID,19.0417,VALID,9,VALID,0,
2008-11-10, 02:44:00,VALID,916.163,VALID,0,VALID,100,VALID,-0.118866,VALID,19.0841,VALID,11,VALID,0,
2008-11-10, 02:45:00,VALID,916.14,VALID,0,VALID,100,VALID,-0.118866,VALID,19.107,VALID,19,VALID,0,
2008-11-10, 02:46:00,VALID,916.141,VALID,0,VALID,100,VALID,-0.101885,VALID,19.1163,VALID,24,VALID,0,
2008-11-10, 02:47:00,VALID,916.124,VALID,0,VALID,100,VALID,-0.101885,VALID,19.1228,VALID,24,VALID,0,
2008-11-10, 02:48:00,VALID,916.112,VALID,0,VALID,100,VALID,-0.118866,VALID,19.1298,VALID,24,VALID,0,
2008-11-10, 02:49:00,VALID,916.111,VALID,0,VALID,100,VALID,-0.101885,VALID,19.0938,VALID,24,VALID,0,
2008-11-10, 02:50:00,VALID,916.105,VALID,0,VALID,100,VALID,-0.0849042,VALID,19.0706,VALID,263,VALID,0,
2008-11-10, 02:51:00,VALID,916.102,VALID,0,VALID,100,VALID,-0.0849042,VALID,19.0542,VALID,360,VALID,0.0367006,
2008-11-10, 02:52:00,VALID,916.083,VALID,0,VALID,100,VALID,-0.0849042,VALID,19.028,VALID,24,VALID,0.480646,
2008-11-10, 02:53:00,VALID,916.059,VALID,0,VALID,100,VALID,-0.101885,VALID,19.0118,VALID,27,VALID,0.0592607,
2008-11-10, 02:54:00,VALID,916.05,VALID,0,VALID,100,VALID,-0.0849042,VALID,19.0384,VALID,26,VALID,0.141006,
2008-11-10, 02:55:00,VALID,916.052,VALID,0,VALID,100,VALID,-0.101885,VALID,19.041,VALID,23,VALID,0.156436,
2008-11-10, 02:56:00,VALID,916.048,VALID,0,VALID,100,VALID,-0.118866,VALID,19.0479,VALID,22,VALID,0.219965,
2008-11-10, 02:57:00,VALID,916.048,VALID,0,VALID,100,VALID,-0.0849042,VALID,19.0549,VALID,22,VALID,0,
2008-11-10, 02:58:00,VALID,916.036,VALID,0,VALID,100,VALID,-0.101885,VALID,19.0449,VALID,13,VALID,0.0361753,
2008-11-10, 02:59:00,VALID,916.022,VALID,0,VALID,100,VALID,-0.101885,VALID,19.0579,VALID,7,VALID,0.111235,
2008-11-10, 03:00:00,VALID,916.032,VALID,0,VALID,100,VALID,-0.101885,VALID,19.0876,VALID,21,VALID,0.000190549,
2008-11-10, 03:01:00,VALID,916.027,VALID,0,VALID,100,VALID,-0.152827,VALID,19.0774,VALID,25,VALID,0.0470526,
2008-11-10, 03:02:00,VALID,916.035,VALID,0,VALID,100,VALID,-0.101885,VALID,19.0674,VALID,27,VALID,0,
2008-11-10, 03:03:00,VALID,916.031,VALID,0,VALID,100,VALID,-0.118866,VALID,19.0549,VALID,333,VALID,0.496804,
2008-11-10, 03:04:00,VALID,916.026,VALID,0,VALID,100,VALID,-0.0849042,VALID,18.9998,VALID,1,VALID,0.180398,
2008-11-10, 03:05:00,VALID,916.001,VALID,0,VALID,100,VALID,0,VALID,18.9462,VALID,22,VALID,0,
2008-11-10, 03:06:00,VALID,915.971,VALID,0,VALID,100,VALID,0,VALID,18.9399,VALID,23,VALID,0,
2008-11-10, 03:07:00,VALID,915.945,VALID,0,VALID,100,VALID,0,VALID,18.9497,VALID,14,VALID,0,
2008-11-10, 03:08:00,VALID,915.939,VALID,0,VALID,100,VALID,0,VALID,18.9559,VALID,12,VALID,0,
2008-11-10, 03:09:00,VALID,915.93,VALID,0,VALID,100,VALID,-0.0169808,VALID,18.9819,VALID,15,VALID,0,
2008-11-10, 03:10:00,VALID,915.913,VALID,0,VALID,100,VALID,0.0169808,VALID,18.9981,VALID,22,VALID,0.0352471,
2008-11-10, 03:11:00,VALID,915.886,VALID,0,VALID,100,VALID,0.0169808,VALID,19.0076,VALID,25,VALID,0.140807,
2008-11-10, 03:12:00,VALID,915.878,VALID,0,VALID,100,VALID,0.0169808,VALID,19.0103,VALID,23,VALID,0,
2008-11-10, 03:13:00,VALID,915.864,VALID,0,VALID,100,VALID,0,VALID,19.0108,VALID,359,VALID,0,
2008-11-10, 03:14:00,VALID,915.851,VALID,0,VALID,100,VALID,0,VALID,19.0016,VALID,360,VALID,0,
2008-11-10, 03:15:00,VALID,915.841,VALID,0,VALID,100,VALID,-0.0169808,VALID,18.9788,VALID,19,VALID,0.013529,
2008-11-10, 03:16:00,VALID,915.816,VALID,0,VALID,100,VALID,0,VALID,18.9751,VALID,12,VALID,0.200964,
2008-11-10, 03:17:00,VALID,915.807,VALID,0,VALID,100,VALID,0,VALID,18.9564,VALID,16,VALID,0,
2008-11-10, 03:18:00,VALID,915.787,VALID,0,VALID,100,VALID,0.0169808,VALID,18.9304,VALID,336,VALID,0,
2008-11-10, 03:19:00,VALID,915.768,VALID,0,VALID,100,VALID,0,VALID,18.9047,VALID,29,VALID,0.0786577,
2008-11-10, 03:20:00,VALID,915.75,VALID,0,VALID,100,VALID,-0.0679233,VALID,18.9281,VALID,18,VALID,0.0257812,
2008-11-10, 03:21:00,VALID,915.745,VALID,0.2,VALID,100,VALID,-0.101885,VALID,18.9513,VALID,34,VALID,0.26527,
2008-11-10, 03:22:00,VALID,915.737,VALID,0,VALID,100,VALID,-0.0849042,VALID,18.9314,VALID,25,VALID,0.284339,
2008-11-10, 03:23:00,VALID,915.745,VALID,0,VALID,100,VALID,-0.118866,VALID,18.9546,VALID,36,VALID,0.374092,
2008-11-10, 03:24:00,VALID,915.747,VALID,0,VALID,100,VALID,-0.0849042,VALID,18.9701,VALID,28,VALID,0.234738,
2008-11-10, 03:25:00,VALID,915.747,VALID,0,VALID,100,VALID,-0.0849042,VALID,18.9833,VALID,20,VALID,0,
2008-11-10, 03:26:00,VALID,915.74,VALID,0,VALID,100,VALID,-0.0849042,VALID,19.0025,VALID,24,VALID,0.0409226,
2008-11-10, 03:27:00,VALID,915.761,VALID,0,VALID,100,VALID,-0.101885,VALID,19.009,VALID,24,VALID,0,
2008-11-10, 03:28:00,VALID,915.758,VALID,0,VALID,100,VALID,-0.101885,VALID,19.0095,VALID,26,VALID,0,
2008-11-10, 03:29:00,VALID,915.759,VALID,0,VALID,100,VALID,-0.101885,VALID,19.0097,VALID,26,VALID,0,
2008-11-10, 03:30:00,VALID,915.762,VALID,0,VALID,100,VALID,-0.101885,VALID,18.9998,VALID,9,VALID,0.0666921,
2008-11-10, 03:31:00,VALID,915.755,VALID,0,VALID,100,VALID,-0.118866,VALID,18.9411,VALID,27,VALID,0.518466,
2008-11-10, 03:32:00,VALID,915.751,VALID,0,VALID,100,VALID,-0.101885,VALID,18.9154,VALID,31,VALID,0.389101,
2008-11-10, 03:33:00,VALID,915.762,VALID,0,VALID,100,VALID,-0.101885,VALID,18.9156,VALID,17,VALID,0.268288,
2008-11-10, 03:34:00,VALID,915.775,VALID,0,VALID,100,VALID,-0.0849042,VALID,18.8892,VALID,25,VALID,0,
2008-11-10, 03:35:00,VALID,915.792,VALID,0,VALID,100,VALID,0,VALID,18.8873,VALID,27,VALID,0.00106534,
2008-11-10, 03:36:00,VALID,915.806,VALID,0,VALID,100,VALID,-0.0169808,VALID,18.9237,VALID,31,VALID,0,
2008-11-10, 03:37:00,VALID,915.829,VALID,0,VALID,100,VALID,0,VALID,18.9399,VALID,30,VALID,0,
2008-11-10, 03:38:00,VALID,915.84,VALID,0,VALID,100,VALID,0.0169808,VALID,18.9561,VALID,30,VALID,0,
2008-11-10, 03:39:00,VALID,915.843,VALID,0,VALID,100,VALID,-0.0169808,VALID,18.9661,VALID,30,VALID,0,
2008-11-10, 03:40:00,VALID,915.858,VALID,0,VALID,100,VALID,0,VALID,18.9686,VALID,36,VALID,0,
2008-11-10, 03:41:00,VALID,915.87,VALID,0,VALID,100,VALID,0.0169808,VALID,18.9652,VALID,35,VALID,0,
2008-11-10, 03:42:00,VALID,915.871,VALID,0,VALID,100,VALID,0,VALID,18.9724,VALID,31,VALID,0,
2008-11-10, 03:43:00,VALID,915.88,VALID,0,VALID,100,VALID,-0.0169808,VALID,18.9594,VALID,21,VALID,0,
2008-11-10, 03:44:00,VALID,915.884,VALID,0,VALID,100,VALID,0,VALID,18.9756,VALID,21,VALID,0,
2008-11-10, 03:45:00,VALID,915.892,VALID,0,VALID,100,VALID,0.0339617,VALID,18.9427,VALID,21,VALID,0,
2008-11-10, 03:46:00,VALID,915.904,VALID,0,VALID,100,VALID,0.0169808,VALID,18.9065,VALID,21,VALID,0,